Key West NAF, FL

10:04 PM EDT on July 25, 2017 (GMT -0400)
Key West Naval Air Station

Weather History for KNQX - May, 2013

Change the Weather History Date:

Thursday, May 23, 2013

  Actual Average Record
Temperature  
Mean Temperature 83 °F -  
Max Temperature 89 °F 85 °F 90 °F (2015)
Min Temperature 77 °F 76 °F 71 °F (1992)
Cooling Degree Days 18    
Growing Degree Days 33 (Base 50)    
Moisture  
Dew Point 73 °F    
Average Humidity 74    
Maximum Humidity 84    
Minimum Humidity 62    
Precipitation  
Precipitation 0.00 in - - ()
Sea Level Pressure  
Sea Level Pressure 29.99 in    
Wind  
Wind Speed 7 mph (West)    
Max Wind Speed 12 mph    
Max Gust Speed -    
Visibility 9 miles    
Events      
Averages and records for this station are not official NWS values.
T = Trace of Precipitation, MM = Missing Value Source: NWS Daily Summary

Daily Weather History Graph

Daily Weather History Graph

Search for Another Location

Airport or City:

Trip Planner

Search our weather history database for the weather conditions in past years. The results will help you decide how hot, cold, wet, or windy it might be!

Date:

Astronomy

May. 23, 2013 Rise Set
Actual Time 6:39 AM EDT 8:07 PM EDT
Civil Twilight 6:14 AM EDT 8:32 PM EDT
Nautical Twilight 5:45 AM EDT 9:02 PM EDT
Astronomical Twilight 5:14 AM EDT 9:33 PM EDT
Moon 6:45 PM EDT (5/23) 5:13 AM EDT (5/23)
Length of Visible Light 14h 17m
Length of Day
13h 27m
Waxing Gibbous, 97% of the Moon is Illuminated
May 23
Waxing Gibbous
May 25
Full
May 31
Last Quarter
Jun 8
New
Jun 16
First Quarter

Hourly Weather History & Observations

Time (EDT) Temp. Heat Index Dew Point Humidity Pressure Visibility Wind Dir Wind Speed Gust Speed Precip Events Conditions
12:53 AM 80.1 °F 84.5 °F 73.9 °F 81% 29.96 in 10.0 mi South 6.9 mph - N/A   Partly Cloudy
1:53 AM 80.1 °F 84.5 °F 73.9 °F 81% 29.95 in 10.0 mi South 8.1 mph - N/A   Clear
2:53 AM 80.1 °F 84.5 °F 73.9 °F 81% 29.94 in 10.0 mi SW 9.2 mph - N/A   Clear
3:53 AM 80.1 °F 84.2 °F 73.0 °F 79% 29.94 in 10.0 mi SW 8.1 mph - N/A   Clear
4:53 AM 80.1 °F 84.2 °F 73.0 °F 79% 29.95 in 8.0 mi SW 6.9 mph - N/A   Clear
5:50 AM 80.6 °F 85.4 °F 73.4 °F 79% 29.96 in 2.5 mi SSW 8.1 mph - N/A   Haze
5:53 AM 80.1 °F 84.5 °F 73.9 °F 81% 29.96 in 2.5 mi SSW 9.2 mph - N/A   Haze
6:22 AM 80.6 °F 85.4 °F 73.4 °F 79% 29.97 in 4.0 mi SSW 9.2 mph - N/A   Haze
6:53 AM 80.1 °F 84.2 °F 73.0 °F 79% 29.97 in 10.0 mi SSW 9.2 mph - N/A   Scattered Clouds
7:53 AM 81.0 °F 85.8 °F 73.0 °F 77% 29.99 in 10.0 mi SSW 5.8 mph - N/A   Mostly Cloudy
8:53 AM 82.9 °F 88.8 °F 73.0 °F 72% 30.02 in 10.0 mi SSW 5.8 mph - N/A   Scattered Clouds
9:53 AM 84.0 °F 90.2 °F 73.0 °F 69% 30.02 in 10.0 mi SW 4.6 mph - N/A   Scattered Clouds
10:53 AM 84.9 °F 91.4 °F 73.0 °F 67% 30.02 in 10.0 mi WSW 4.6 mph - N/A   Scattered Clouds
11:08 AM 86.0 °F 93.4 °F 73.4 °F 66% 30.03 in 10.0 mi WNW 8.1 mph - N/A   Mostly Cloudy
11:27 AM 87.8 °F 95.6 °F 73.4 °F 62% 30.03 in 10.0 mi WNW 8.1 mph - N/A   Scattered Clouds
11:53 AM 87.1 °F 94.5 °F 73.0 °F 63% 30.03 in 10.0 mi NW 9.2 mph - N/A   Scattered Clouds
12:53 PM 87.1 °F 95.4 °F 73.9 °F 65% 30.03 in 10.0 mi NNW 9.2 mph - N/A   Scattered Clouds
1:53 PM 88.0 °F 97.5 °F 75.0 °F 65% 30.02 in 10.0 mi NNW 11.5 mph - N/A   Mostly Cloudy
2:53 PM 87.1 °F 96.3 °F 75.0 °F 67% 29.99 in 10.0 mi North 11.5 mph - N/A   Scattered Clouds
3:53 PM 86.0 °F 93.8 °F 73.9 °F 67% 29.99 in 10.0 mi North 10.4 mph - N/A   Scattered Clouds
4:53 PM 87.1 °F 95.4 °F 73.9 °F 65% 29.99 in 10.0 mi NNW 9.2 mph - N/A   Scattered Clouds
5:53 PM 84.9 °F 92.1 °F 73.9 °F 69% 29.98 in 10.0 mi Variable 5.8 mph - N/A   Partly Cloudy
6:53 PM 84.0 °F 90.2 °F 73.0 °F 69% 29.99 in 10.0 mi North 5.8 mph - N/A   Scattered Clouds
7:53 PM 82.0 °F 87.4 °F 73.0 °F 74% 30.00 in 10.0 mi North 4.6 mph - N/A   Scattered Clouds
8:53 PM 80.1 °F 84.2 °F 73.0 °F 79% 30.01 in 10.0 mi North 3.5 mph - N/A   Partly Cloudy
9:53 PM 79.0 °F - 73.0 °F 82% 30.01 in 10.0 mi Calm Calm - N/A   Clear
10:53 PM 78.1 °F - 72.0 °F 81% 30.02 in 10.0 mi Calm Calm - N/A   Clear
11:53 PM 77.0 °F - 72.0 °F 84% 30.02 in 10.0 mi Calm Calm - N/A   Clear